Location: Napa Soda Springs
(38.3907°N, 122.2794°W)
Time: 08:19:57
(UTC+00:00)

Cosmos 2180 Rocket - Pass Details

Date: 29 October 2020
Orbit: 953 x 1006 km, 82.9° (Epoch: 02 December)

Event Time Altitude Azimuth Distance (km) Brightness Sun altitude
Rises 12:11:01 0° 350° (N) 3,687 7.5 -28.3°
Reaches altitude 10° 12:13:33 10° 348° (NNW) 2,727 6.7 -27.8°
Enters shadow 12:16:59 34° 339° (NNW) 1,534 5.3 -27.2°
Exits shadow 12:19:17 66° 294° (WNW) 1,050 4.3 -26.7°
Maximum altitude 12:19:44 68° 267° (W) 1,033 4.3 -26.6°
Drops below altitude 10° 12:25:49 10° 185° (S) 2,679 6.7 -25.4°
Sets 12:28:18 0° 183° (S) 3,617 7.4 -24.9°
